KLM69H EHAM-EFHK

Flight info

Callsign KLM69H
Flight time N/A
Altitude 35000
Route ANDIK DCT JUIST DCT ATTUS DCT KOXIM DCT RUNGA DCT RIRIP Y364 LAKUT
Aircraft B738/M-SDE2E3FGHIRWXY/LB1

Departure

Time 2026-04-30 13:49
Airport Amsterdam Airport Schiphol (EHAM)

Arrival

Time N/A
Airport Helsinki Vantaa Airport (EFHK)
Time Latitude Longitude Altitude Speed Heading
2026-04-30 13:21 52.30895 4.77367 -2 ft 0 kts
2026-04-30 13:37 52.30852 4.77371 -2 ft 4 kts 29°
2026-04-30 13:38 52.30841 4.77337 -2 ft 1 kts 79°
2026-04-30 13:41 52.30842 4.77345 -2 ft 2 kts 81°
2026-04-30 13:42 52.30840 4.77406 -2 ft 7 kts 97°
2026-04-30 13:42 52.30833 4.77499 -2 ft 10 kts 97°
2026-04-30 13:42 52.30941 4.77612 -2 ft 11 kts
2026-04-30 13:43 52.31031 4.77621 -2 ft 15 kts
2026-04-30 13:43 52.31155 4.77634 -2 ft 20 kts
2026-04-30 13:43 52.31294 4.77644 -2 ft 20 kts
2026-04-30 13:43 52.31428 4.77642 -2 ft 19 kts 347°
2026-04-30 13:44 52.31533 4.77522 -2 ft 18 kts 315°
2026-04-30 13:44 52.31575 4.77335 -2 ft 18 kts 269°
2026-04-30 13:44 52.31568 4.77137 -2 ft 17 kts 268°
2026-04-30 13:44 52.31564 4.76945 -2 ft 17 kts 268°
2026-04-30 13:45 52.31551 4.76584 -2 ft 15 kts 265°
2026-04-30 13:45 52.31543 4.76414 -2 ft 15 kts 265°
2026-04-30 13:45 52.31538 4.76248 -2 ft 16 kts 268°
2026-04-30 13:46 52.31531 4.76032 -2 ft 21 kts 266°
2026-04-30 13:46 52.31522 4.75788 -2 ft 21 kts 268°
2026-04-30 13:46 52.31516 4.75547 -2 ft 21 kts 268°
2026-04-30 13:46 52.31508 4.75316 -2 ft 20 kts 265°
2026-04-30 13:47 52.31497 4.75092 -2 ft 19 kts 266°
2026-04-30 13:47 52.31491 4.74881 -2 ft 16 kts 268°
2026-04-30 13:47 52.31492 4.74722 -2 ft 13 kts 285°
2026-04-30 13:47 52.31558 4.74659 -2 ft 10 kts 358°
2026-04-30 13:48 52.31626 4.74673 -2 ft 10 kts 21°
2026-04-30 13:48 52.31667 4.74749 -2 ft 10 kts 84°
2026-04-30 13:48 52.31675 4.74917 -4 ft 35 kts 87°
2026-04-30 13:48 52.31701 4.75749 -2 ft 108 kts 87°
2026-04-30 13:49 52.31745 4.77309 85 ft 160 kts 90°
2026-04-30 13:49 52.31801 4.79238 679 ft 178 kts 89°
2026-04-30 13:49 52.31883 4.81350 1364 ft 184 kts 86°
2026-04-30 13:49 52.32013 4.83382 2319 ft 184 kts 86°
2026-04-30 13:50 52.32127 4.85595 2692 ft 207 kts 90°
2026-04-30 13:50 52.32158 4.90503 3898 ft 223 kts 92°
2026-04-30 13:51 52.32301 4.98164 5982 ft 247 kts 92°
2026-04-30 13:51 52.32341 5.00962 6868 ft 250 kts 92°
2026-04-30 13:51 52.32371 5.03858 7716 ft 254 kts 92°
2026-04-30 13:52 52.32387 5.06762 8553 ft 257 kts 92°
2026-04-30 13:52 52.32395 5.09692 9428 ft 259 kts 91°
2026-04-30 13:52 52.32423 5.12670 10237 ft 264 kts 92°
2026-04-30 13:52 52.32418 5.15709 10825 ft 276 kts 92°
2026-04-30 13:53 52.32397 5.19003 11000 ft 301 kts 92°
2026-04-30 13:53 52.32417 5.22555 11187 ft 325 kts 84°
2026-04-30 13:53 52.33155 5.26149 11596 ft 345 kts 62°
2026-04-30 13:53 52.34758 5.29136 12313 ft 357 kts 41°
2026-04-30 13:54 52.36963 5.31088 13026 ft 366 kts 25°
2026-04-30 13:54 52.39450 5.32198 13439 ft 379 kts 11°
2026-04-30 13:54 52.42089 5.32553 14190 ft 379 kts 14°
2026-04-30 13:54 52.44537 5.33972 14883 ft 371 kts 34°
2026-04-30 13:55 52.46535 5.36593 15546 ft 368 kts 47°
2026-04-30 13:55 52.48381 5.39419 16145 ft 373 kts 45°
2026-04-30 13:55 52.50352 5.42235 16744 ft 378 kts 44°
2026-04-30 13:55 52.52374 5.45028 17371 ft 382 kts 43°
2026-04-30 13:56 52.54430 5.47822 17973 ft 385 kts 43°
2026-04-30 13:56 52.56511 5.50631 18582 ft 389 kts 43°
2026-04-30 13:56 52.58610 5.53461 19101 ft 393 kts 43°
2026-04-30 13:56 52.60729 5.56321 19634 ft 395 kts 43°
2026-04-30 13:57 52.62862 5.59203 20160 ft 398 kts 42°
2026-04-30 13:57 52.65009 5.62111 20682 ft 401 kts 42°
2026-04-30 13:57 52.67165 5.65036 21202 ft 404 kts 42°
2026-04-30 13:57 52.69337 5.67987 21719 ft 406 kts 42°
2026-04-30 13:58 52.71525 5.70964 22205 ft 410 kts 42°
2026-04-30 13:58 52.75949 5.77000 23183 ft 415 kts 42°
2026-04-30 13:58 52.78185 5.80055 23626 ft 419 kts 42°
2026-04-30 13:59 52.80466 5.83177 24066 ft 422 kts 42°
2026-04-30 13:59 52.82729 5.86279 24473 ft 424 kts 42°
2026-04-30 13:59 52.85001 5.89396 24871 ft 426 kts 42°
2026-04-30 13:59 52.87286 5.92537 25230 ft 428 kts 42°
2026-04-30 14:00 52.89582 5.95699 25619 ft 430 kts 41°
2026-04-30 14:00 52.94203 6.02072 26329 ft 435 kts 41°
2026-04-30 14:00 52.96532 6.05292 26689 ft 437 kts 41°
2026-04-30 14:01 52.98869 6.08526 27061 ft 438 kts 41°
2026-04-30 14:01 53.01213 6.11779 27382 ft 441 kts 41°
2026-04-30 14:01 53.03568 6.15049 27696 ft 443 kts 41°
2026-04-30 14:01 53.05939 6.18345 28089 ft 444 kts 41°
2026-04-30 14:02 53.08309 6.21645 28387 ft 446 kts 41°
2026-04-30 14:02 53.10688 6.24963 28766 ft 446 kts 41°
2026-04-30 14:02 53.13064 6.28282 29162 ft 446 kts 41°
2026-04-30 14:02 53.15434 6.31598 29608 ft 445 kts 41°
2026-04-30 14:03 53.17798 6.34909 30084 ft 443 kts 41°
2026-04-30 14:03 53.20150 6.38208 30559 ft 441 kts 41°
2026-04-30 14:03 53.22488 6.41494 30926 ft 440 kts 41°
2026-04-30 14:03 53.24825 6.44783 31293 ft 438 kts 41°
2026-04-30 14:04 53.27150 6.48061 31693 ft 436 kts 41°
2026-04-30 14:04 53.29461 6.51323 32130 ft 433 kts 41°
2026-04-30 14:04 53.31761 6.54573 32483 ft 433 kts 41°
2026-04-30 14:04 53.34054 6.57820 32805 ft 432 kts 41°
2026-04-30 14:05 53.36337 6.61112 33115 ft 432 kts 42°
2026-04-30 14:05 53.38553 6.64498 33437 ft 432 kts 43°
2026-04-30 14:05 53.40749 6.67927 33793 ft 430 kts 43°
2026-04-30 14:05 53.42968 6.71396 34108 ft 430 kts 43°
2026-04-30 14:06 53.45166 6.74811 34353 ft 432 kts 43°
2026-04-30 14:06 53.49567 6.81612 35058 ft 426 kts 43°
2026-04-30 14:07 53.53926 6.88330 35425 ft 426 kts 43°
2026-04-30 14:07 53.56116 6.91706 35429 ft 427 kts 42°
2026-04-30 14:08 53.63027 7.01178 35440 ft 427 kts 38°
2026-04-30 14:08 53.70041 7.10446 35448 ft 427 kts 38°
2026-04-30 14:09 53.74692 7.16685 35449 ft 427 kts 38°
2026-04-30 14:10 53.81652 7.26101 35456 ft 427 kts 38°
2026-04-30 14:10 53.86286 7.32397 35458 ft 427 kts 38°
2026-04-30 14:11 53.90913 7.38700 35462 ft 427 kts 38°
2026-04-30 14:11 53.95544 7.45028 35465 ft 427 kts 38°
2026-04-30 14:12 54.00164 7.51357 35468 ft 427 kts 38°
2026-04-30 14:12 54.04795 7.57722 35471 ft 428 kts 38°
2026-04-30 14:13 54.09451 7.64139 35475 ft 428 kts 38°
2026-04-30 14:13 54.14077 7.70535 35478 ft 428 kts 39°
2026-04-30 14:14 54.18706 7.76954 35477 ft 429 kts 38°
2026-04-30 14:14 54.23334 7.83389 35482 ft 429 kts 38°
2026-04-30 14:15 54.27960 7.89843 35484 ft 429 kts 38°
2026-04-30 14:15 54.32586 7.96314 35479 ft 430 kts 38°
2026-04-30 14:16 54.37211 8.02804 35483 ft 430 kts 38°
2026-04-30 14:16 54.41837 8.09315 35486 ft 430 kts 38°
2026-04-30 14:17 54.46457 8.15838 35483 ft 430 kts 38°
2026-04-30 14:17 54.51077 8.22380 35484 ft 430 kts 38°
2026-04-30 14:18 54.55685 8.28925 35484 ft 430 kts 38°
2026-04-30 14:18 54.62633 8.38830 35495 ft 430 kts 38°
2026-04-30 14:19 54.69535 8.48716 35494 ft 429 kts 38°
2026-04-30 14:20 54.74129 8.55321 35501 ft 429 kts 38°
2026-04-30 14:20 54.80233 8.64129 35499 ft 429 kts 38°
2026-04-30 14:21 54.84816 8.70765 35501 ft 429 kts 38°
2026-04-30 14:22 54.91609 8.80872 35492 ft 429 kts 42°
2026-04-30 14:22 54.97958 8.91848 35483 ft 429 kts 44°
2026-04-30 14:23 55.06400 9.06637 35480 ft 429 kts 43°
2026-04-30 14:24 55.12723 9.17671 35481 ft 428 kts 43°
2026-04-30 14:25 55.21139 9.32422 35485 ft 428 kts 43°
2026-04-30 14:26 55.27431 9.43512 35488 ft 428 kts 43°
2026-04-30 14:27 55.33710 9.54636 35480 ft 427 kts 43°
2026-04-30 14:27 55.37887 9.62063 35480 ft 427 kts 43°
2026-04-30 14:28 55.44168 9.73279 35471 ft 427 kts 43°
2026-04-30 14:28 55.48326 9.80733 35468 ft 426 kts 43°
2026-04-30 14:29 55.56634 9.95698 35455 ft 426 kts 43°
2026-04-30 14:31 55.66984 10.14477 35454 ft 426 kts 44°
2026-04-30 14:31 55.73177 10.25787 35453 ft 427 kts 44°
2026-04-30 14:32 55.79375 10.37159 35446 ft 427 kts 44°
2026-04-30 14:33 55.83497 10.44755 35448 ft 427 kts 44°
2026-04-30 14:33 55.89684 10.56200 35449 ft 427 kts 44°
2026-04-30 14:34 55.93800 10.63847 35446 ft 428 kts 44°
2026-04-30 14:34 55.97920 10.71525 35446 ft 428 kts 44°
2026-04-30 14:35 56.04087 10.83066 35448 ft 428 kts 44°
2026-04-30 14:36 56.08217 10.90827 35448 ft 428 kts 44°
2026-04-30 14:36 56.12320 10.98562 35449 ft 428 kts 44°
2026-04-30 14:37 56.16415 11.06309 35450 ft 428 kts 44°
2026-04-30 14:37 56.20509 11.14080 35449 ft 428 kts 44°
2026-04-30 14:38 56.24596 11.21862 35448 ft 428 kts 44°
2026-04-30 14:38 56.28678 11.29661 35444 ft 428 kts 45°
2026-04-30 14:39 56.32760 11.37485 35447 ft 428 kts 45°
2026-04-30 14:39 56.36834 11.45322 35444 ft 428 kts 45°
2026-04-30 14:40 56.42940 11.57115 35442 ft 429 kts 45°
2026-04-30 14:40 56.47003 11.64997 35443 ft 429 kts 45°
2026-04-30 14:41 56.51066 11.72903 35448 ft 429 kts 45°
2026-04-30 14:41 56.55144 11.80868 35441 ft 429 kts 45°
2026-04-30 14:42 56.59197 11.88809 35445 ft 429 kts 45°
2026-04-30 14:42 56.63242 11.96762 35440 ft 429 kts 45°
2026-04-30 14:43 56.67283 12.04736 35440 ft 429 kts 45°
2026-04-30 14:43 56.71316 12.12719 35439 ft 428 kts 45°
2026-04-30 14:44 56.75343 12.20716 35441 ft 428 kts 45°
2026-04-30 14:44 56.79363 12.28730 35442 ft 428 kts 45°
2026-04-30 14:45 56.83380 12.36764 35444 ft 428 kts 46°
2026-04-30 14:45 56.87388 12.44807 35444 ft 428 kts 46°
2026-04-30 14:46 56.91390 12.52866 35445 ft 428 kts 46°
2026-04-30 14:46 56.94744 12.59640 35440 ft 428 kts 46°
2026-04-30 14:47 56.99390 12.69058 35434 ft 429 kts 46°
2026-04-30 14:47 57.03385 12.77189 35423 ft 429 kts 46°
2026-04-30 14:48 57.07372 12.85329 35415 ft 429 kts 46°
2026-04-30 14:48 57.11381 12.93544 35409 ft 428 kts 46°
2026-04-30 14:49 57.15350 13.01704 35404 ft 428 kts 46°
2026-04-30 14:49 57.19317 13.09887 35396 ft 427 kts 46°
2026-04-30 14:50 57.25241 13.22164 35388 ft 426 kts 46°
2026-04-30 14:51 57.31136 13.34445 35381 ft 425 kts 46°
2026-04-30 14:52 57.37008 13.46742 35368 ft 425 kts 46°
2026-04-30 14:52 57.42863 13.59068 35372 ft 424 kts 46°
2026-04-30 14:53 57.48065 13.70071 35372 ft 424 kts 46°
2026-04-30 14:54 57.55822 13.86578 35347 ft 423 kts 46°
2026-04-30 14:55 57.61619 13.98991 35355 ft 423 kts 46°
2026-04-30 14:56 57.69323 14.15588 35347 ft 423 kts 46°
2026-04-30 14:57 57.75082 14.28074 35354 ft 422 kts 46°
2026-04-30 14:58 57.82738 14.44774 35357 ft 422 kts 46°
2026-04-30 14:58 57.88461 14.57336 35360 ft 422 kts 46°
2026-04-30 15:00 57.97994 14.78410 35351 ft 421 kts 47°
2026-04-30 15:01 58.05556 14.95263 35351 ft 420 kts 47°
2026-04-30 15:01 58.11196 15.07913 35349 ft 419 kts 47°
2026-04-30 15:02 58.14944 15.16356 35338 ft 419 kts 47°
2026-04-30 15:03 58.24269 15.37497 35351 ft 418 kts 47°
2026-04-30 15:04 58.33546 15.58719 35349 ft 417 kts 47°
2026-04-30 15:06 58.42592 15.80325 35321 ft 418 kts 51°
2026-04-30 15:07 58.49209 15.98689 35324 ft 418 kts 51°
2026-04-30 15:08 58.55816 16.16981 35320 ft 417 kts 51°
2026-04-30 15:09 58.64048 16.39877 35316 ft 417 kts 51°
2026-04-30 15:10 58.70597 16.58253 35325 ft 416 kts 51°
2026-04-30 15:11 58.80353 16.85895 35321 ft 416 kts 51°
2026-04-30 15:13 58.88426 17.09016 35323 ft 415 kts 52°
2026-04-30 15:14 58.99654 17.41554 35318 ft 414 kts 52°
2026-04-30 15:17 59.13894 17.83477 35306 ft 412 kts 52°
2026-04-30 15:19 59.26391 18.20894 35306 ft 411 kts 52°